Theta_e
306 307 306 306 307 307 307 308 308 308 308 308 309 309 311 312 312 313 315 320 320 322 320 316 316 317 316 315 312 308 312 313 314 314 322 326 337 336 334 338 340 340 339 345 346
307 307 307 308 308 308 308 308 308 308 308 308 309 311 312 312 314 315 320 319 323 321 318 316 315 316 314 315 313 312 311 315 313 317 322 327 335 336 339 344 344 345 345 344 345
307 307 307 307 308 308 308 308 308 308 308 310 311 312 312 313 315 321 321 317 321 320 317 317 316 317 318 315 314 312 315 314 316 317 319 327 339 340 338 345 343 343 344 342 341
309 309 308 307 307 307 307 307 308 309 310 311 312 312 313 318 321 320 321 316 319 317 316 316 314 316 316 317 315 316 315 314 323 333 334 336 338 341 343 346 341 340 338 336 336
309 310 311 311 311 310 310 310 311 311 312 312 313 313 314 314 315 320 323 316 316 317 316 316 317 315 315 315 314 315 315 327 336 337 337 338 339 341 343 339 338 338 338 338 335
309 309 310 311 313 313 313 313 313 313 314 313 313 312 315 315 319 321 320 317 317 317 316 316 317 316 315 314 316 315 323 334 338 339 339 341 340 339 338 336 336 336 335 334 333
309 309 309 310 311 312 312 313 314 314 313 313 313 313 315 312 319 321 323 318 319 319 317 317 317 317 316 314 314 315 314 331 339 330 340 339 343 343 338 335 335 336 336 334 330
310 309 309 310 312 313 313 314 314 314 313 313 313 313 313 319 321 324 324 321 319 318 318 318 316 315 314 313 314 317 314 330 338 338 341 339 349 344 335 335 336 336 336 335 332
311 310 310 311 312 313 314 315 315 315 315 316 313 316 318 322 323 323 321 321 320 320 318 317 315 313 314 316 317 315 324 329 343 341 342 342 349 340 334 334 334 334 334 334 332
310 311 310 311 312 312 313 315 317 318 319 317 318 318 320 322 323 323 320 320 319 316 316 316 311 313 313 316 322 323 329 345 346 341 340 343 343 338 337 334 333 332 332 331 330
311 311 310 311 311 312 313 319 317 318 320 321 321 321 320 323 323 320 319 318 316 315 316 315 316 317 319 318 319 325 344 345 343 339 340 340 340 338 335 334 332 330 329 329 329
311 311 311 311 312 314 319 318 322 322 322 319 319 319 321 322 324 322 318 318 318 318 318 317 319 318 317 319 319 328 339 340 337 336 338 339 342 336 335 334 333 332 330 328 328
311 311 311 312 313 319 317 319 320 319 320 321 321 323 323 323 323 320 318 318 319 319 318 319 321 320 320 320 320 319 320 336 338 338 336 337 340 337 334 332 330 329 328 327 325
311 312 311 312 318 318 319 320 322 320 327 329 328 326 323 320 320 320 319 320 320 320 321 322 322 322 322 322 320 322 330 338 339 338 341 333 340 338 335 332 330 327 325 324 324
312 312 312 312 318 318 320 323 323 324 324 328 322 322 318 320 321 321 320 320 323 324 323 325 326 324 323 324 322 323 334 337 337 318 329 335 336 342 333 334 330 327 325 323 320
313 312 311 313 316 318 321 324 322 326 331 328 320 321 320 318 319 319 321 320 322 325 325 326 325 326 327 323 321 320 319 316 316 315 322 331 334 339 337 335 331 327 324 321 316
314 312 311 312 315 319 324 321 324 328 326 325 323 320 320 321 320 323 325 324 321 324 327 325 324 322 320 321 320 318 317 320 321 320 320 332 334 341 334 330 329 327 321 316 315
314 314 317 320 321 324 324 321 328 327 327 325 325 324 327 325 325 327 326 325 325 322 323 327 326 323 322 321 322 319 317 320 326 323 323 331 338 336 330 327 324 322 317 316 315
317 319 322 322 323 323 318 324 326 327 324 325 325 324 325 327 327 328 328 329 327 325 325 325 328 323 322 320 321 323 324 317 320 319 327 333 335 332 327 326 324 320 317 316 314
324 323 324 321 323 321 318 324 325 325 321 323 324 324 328 327 330 328 327 326 328 322 323 326 326 324 323 319 319 322 321 324 320 328 329 333 333 333 331 328 326 323 320 317 314
324 318 324 320 321 312 316 322 324 321 322 324 324 327 326 326 329 329 326 327 326 327 321 322 322 324 321 321 321 321 323 321 318 320 324 327 327 328 327 327 327 324 319 316 315
318 320 324 320 317 313 320 323 323 320 319 322 321 323 325 325 328 325 325 326 326 323 323 322 318 321 322 321 321 323 324 320 322 325 324 323 323 322 323 323 322 321 318 316 311
317 319 323 322 322 319 319 322 322 322 326 322 327 323 325 327 327 325 324 327 327 328 325 322 322 323 322 320 319 327 328 323 320 319 325 326 324 322 325 324 322 319 312 310 309
315 321 316 313 314 320 319 320 323 323 325 324 325 324 326 326 324 328 329 328 329 328 328 324 321 321 323 324 322 331 329 327 320 323 325 329 329 325 322 323 320 311 310 308 308
311 317 315 317 318 316 317 320 323 323 325 324 324 325 328 328 326 329 329 327 326 325 321 317 324 325 327 329 330 328 326 324 328 328 328 328 324 323 320 317 315 310 310 309 308
314 315 313 319 317 318 316 321 324 328 326 326 324 324 323 325 324 326 326 325 325 322 322 318 323 325 328 328 326 325 326 325 325 325 322 321 321 314 312 310 309 308 309 308 308
313 314 313 318 320 321 323 323 323 326 327 325 325 324 322 324 323 322 319 318 321 322 322 322 321 322 328 327 325 326 327 324 322 320 321 321 320 313 312 310 308 307 306 308 306
Wind_Speed
8 8 7 7 8 8 8 8 9 10 11 13 14 15 19 23 27 16 5 3 5 2 4 3 1 2 1 3 2 3 4 2 4 5 6 2 5 6 6 9 6 6 4 16 21
8 7 7 7 7 8 8 9 10 10 11 12 14 15 19 25 22 8 2 3 4 2 3 3 2 4 3 2 2 4 3 6 6 5 3 15 10 6 6 7 9 15 18 22 17
8 8 8 8 8 8 8 9 10 11 11 12 13 15 19 19 4 3 5 4 6 4 1 2 2 3 4 2 2 3 4 3 5 4 3 7 18 10 2 9 6 15 15 14 14
8 8 8 8 8 8 9 9 10 10 10 11 13 15 19 5 2 2 7 5 5 3 0 3 5 4 3 2 1 1 5 3 12 13 8 7 7 22 20 10 14 14 15 14 13
8 8 8 8 7 7 8 9 9 9 10 10 12 14 7 4 7 3 6 1 2 2 1 2 3 3 1 2 1 3 7 12 13 27 26 26 23 14 18 19 19 19 16 12 15
8 7 7 7 7 7 9 8 9 9 9 10 11 11 2 3 2 6 4 1 3 2 2 3 2 4 2 3 2 4 13 12 17 20 16 26 20 5 14 17 18 17 13 12 14
9 8 6 6 6 7 8 9 9 10 10 9 8 6 3 10 3 7 7 4 4 4 2 5 6 4 3 5 1 4 8 9 17 2 5 13 23 15 13 14 16 13 11 11 13
10 9 7 5 5 5 6 7 8 8 8 8 6 3 6 5 8 12 8 8 9 8 7 9 6 2 1 3 6 7 6 5 13 6 7 8 10 15 15 15 14 12 10 11 14
13 10 8 6 5 6 6 7 7 6 6 5 1 2 9 8 9 7 5 6 5 7 8 2 2 3 5 4 5 9 4 7 6 17 3 8 11 13 15 15 13 12 11 10 9
15 12 9 6 5 6 8 8 4 2 0 1 0 2 5 4 6 7 7 9 2 6 6 6 5 4 5 5 1 2 7 8 7 9 23 21 17 14 14 16 11 11 11 11 10
15 13 10 7 6 7 8 0 4 2 2 5 4 3 6 7 7 2 2 3 2 6 3 5 7 2 2 4 4 8 11 13 7 3 12 13 14 12 11 13 8 8 10 10 10
16 13 12 10 8 7 3 2 2 2 6 6 5 6 11 4 2 3 5 1 4 3 2 7 5 2 7 9 11 11 14 4 6 10 8 12 12 9 7 6 8 8 10 7 6
16 12 11 11 8 2 3 3 7 7 2 7 4 4 4 6 1 4 4 2 4 6 6 7 4 2 8 4 8 3 6 5 7 10 10 13 6 4 5 8 8 9 8 7 5
17 12 8 8 2 6 2 15 12 10 5 5 2 4 2 1 4 3 3 2 6 4 5 6 6 4 3 4 3 5 7 13 21 5 5 2 3 5 5 2 4 5 5 3 3
18 11 7 4 4 2 8 17 3 2 4 3 2 1 2 4 1 6 5 6 3 2 6 2 2 6 8 3 1 3 14 14 7 3 5 2 4 5 8 5 3 2 3 1 1
16 9 5 2 3 5 15 13 1 5 2 4 3 2 3 5 5 5 6 8 3 7 6 2 3 3 1 3 4 4 5 3 3 3 2 2 4 5 5 5 7 5 4 4 1
13 4 1 1 1 11 13 4 5 3 4 7 2 3 3 4 6 6 5 6 3 3 4 5 4 6 6 5 4 8 6 3 3 4 2 4 3 0 4 7 8 9 6 4 2
7 3 2 5 9 8 4 5 3 3 2 3 4 4 4 4 6 6 3 6 6 5 3 2 5 6 8 3 2 3 4 4 3 2 2 5 2 3 4 2 5 4 5 3 3
3 3 7 14 8 6 5 4 4 2 3 4 3 7 7 5 3 5 4 4 3 4 5 3 2 1 6 5 3 5 4 2 5 1 3 1 2 4 3 2 2 3 4 4 5
4 3 10 14 5 5 5 3 1 3 4 4 4 4 5 7 3 4 5 4 5 7 1 2 3 3 4 6 8 6 1 4 4 3 3 3 4 3 6 6 3 3 5 4 5
4 4 12 8 4 6 3 3 3 4 1 5 2 4 3 3 4 4 5 4 6 6 9 3 3 4 3 6 2 6 4 5 4 3 2 0 4 5 5 4 7 4 3 3 1
3 3 14 4 4 1 1 1 5 4 8 6 5 4 3 5 6 4 3 2 8 3 3 3 4 2 3 3 4 4 2 3 4 4 2 3 4 4 4 4 4 4 3 4 5
3 2 9 5 3 4 5 4 4 6 7 5 5 6 5 4 4 2 3 6 9 5 2 1 4 3 7 5 5 6 4 3 3 3 1 2 4 2 3 5 5 5 6 6 4
3 3 4 5 1 2 4 4 4 6 5 5 3 4 5 7 6 3 2 5 4 3 8 6 4 4 5 5 2 4 5 3 4 3 1 0 4 4 4 4 4 6 7 5 4
4 1 3 3 4 4 2 2 3 4 4 7 5 5 2 3 3 3 2 4 4 8 6 5 4 3 5 4 4 3 4 8 6 2 3 2 2 3 3 3 7 6 6 5 4
3 2 3 1 3 4 6 5 1 3 4 4 7 4 5 4 1 2 2 2 1 6 4 4 2 2 4 3 5 5 3 3 4 2 3 2 2 2 3 6 6 5 6 5 5
5 2 2 4 4 2 2 4 3 2 5 5 4 4 7 0 4 1 1 1 3 3 2 3 4 2 1 1 6 3 2 1 1 1 1 2 2 5 3 5 4 4 5 4 5
Wind_Direction
306 306 314 314 311 307 313 314 315 318 321 326 328 327 323 323 320 314 250 163 133 33 357 346 151 295 172 97 107 127 58 282 232 171 275 104 68 10 16 86 46 354 65 123 138
300 304 306 305 302 306 310 310 310 313 317 324 326 326 325 325 321 269 26 224 209 278 359 30 338 350 53 80 40 89 101 235 209 154 309 55 62 355 63 58 66 80 99 110 128
305 302 300 300 300 303 304 302 305 308 318 323 325 326 327 326 310 261 19 7 201 218 270 332 30 75 61 11 154 159 198 221 310 197 53 101 49 19 15 39 63 123 116 104 106
320 308 302 299 297 298 296 298 303 309 317 322 324 328 327 326 129 26 10 30 137 169 259 31 18 52 60 338 32 288 260 323 347 29 53 61 77 63 57 73 97 90 85 70 51
333 318 300 293 296 296 294 293 299 306 315 318 322 332 339 358 254 339 6 80 145 163 76 53 54 114 292 273 355 192 44 60 85 74 80 83 71 75 65 75 78 80 65 61 44
339 322 303 297 292 288 284 290 294 299 303 306 317 332 351 339 321 5 4 306 243 231 145 170 178 195 244 260 133 39 87 93 66 81 98 84 60 67 56 77 74 73 67 57 61
349 332 323 310 300 290 287 288 287 288 290 297 311 328 80 240 301 318 321 268 263 262 247 217 183 85 301 332 208 95 112 107 27 289 164 118 56 83 80 73 74 70 71 60 57
356 353 347 339 330 316 307 296 287 283 286 291 297 334 253 290 288 297 272 276 277 273 259 305 213 115 102 292 26 50 65 66 12 4 5 98 100 85 80 73 71 71 77 71 68
2 358 357 353 335 320 305 294 287 288 290 285 301 79 280 308 323 334 245 248 273 310 312 282 112 83 12 52 23 18 60 27 23 14 80 77 106 85 86 83 69 67 68 72 64
1 356 0 348 340 322 311 303 276 255 326 116 100 357 282 307 320 305 277 243 262 331 1 42 50 60 29 66 137 93 109 55 69 32 78 84 90 87 85 84 76 72 63 64 65
359 352 354 348 345 329 317 223 10 3 181 218 231 239 265 309 300 251 238 112 76 48 22 352 64 96 186 88 114 79 90 113 134 70 77 97 99 98 95 98 88 80 79 69 45
357 351 347 341 346 334 38 73 126 265 317 248 257 269 271 257 308 301 166 136 58 26 30 26 38 263 119 83 91 105 111 93 57 91 87 102 91 81 81 84 94 81 70 65 53
355 350 344 334 343 24 345 39 326 300 121 300 209 233 242 153 253 288 142 106 86 48 40 95 341 98 96 66 86 103 134 178 136 90 88 125 98 107 96 86 80 72 72 58 49
352 346 340 334 42 345 346 342 335 157 61 290 294 291 160 217 337 255 188 76 37 125 84 69 2 50 77 92 106 59 119 130 139 120 185 173 135 175 159 128 107 87 79 45 17
347 338 336 333 332 10 325 340 91 81 53 288 265 292 49 120 318 346 37 35 57 60 100 163 94 39 53 10 73 93 144 150 156 101 116 154 106 145 164 209 202 128 112 241 250
342 333 328 299 305 343 337 338 30 40 26 353 321 14 35 17 353 336 35 37 82 70 48 37 340 57 287 68 50 113 120 90 94 135 63 190 149 193 184 194 176 173 208 201 254
343 339 317 316 355 341 338 34 41 99 325 330 332 66 100 339 2 33 44 29 52 74 38 15 357 330 44 32 11 50 51 335 352 358 251 313 63 321 177 179 186 189 186 168 211
360 64 55 14 324 340 13 51 81 293 303 354 27 41 72 4 2 18 64 28 9 58 84 113 352 18 326 53 286 58 116 141 273 238 235 354 147 228 166 103 92 103 123 174 230
40 48 47 350 340 348 71 67 190 239 294 6 45 51 351 15 108 77 45 29 17 5 107 113 100 106 52 26 52 326 30 193 114 71 92 267 253 276 160 133 84 152 142 214 229
20 53 19 353 19 35 74 205 233 221 333 62 87 40 38 338 57 71 21 350 342 28 161 113 89 17 14 37 16 82 266 9 11 313 288 246 283 275 217 217 214 222 190 233 247
33 51 356 354 14 47 113 239 296 328 123 59 80 53 66 3 33 43 356 9 12 349 60 38 83 302 64 36 325 352 12 39 110 102 197 268 269 360 13 149 189 214 174 223 215
49 50 346 30 49 41 82 301 313 343 22 57 82 68 55 43 38 67 71 286 334 303 56 349 121 47 90 317 46 68 47 107 112 285 78 148 294 341 9 53 114 84 109 94 92
69 271 356 23 76 348 318 358 48 31 30 36 51 41 52 49 91 64 52 341 11 49 68 102 23 29 349 348 4 43 355 55 100 80 65 61 301 14 31 66 50 108 94 92 90
69 35 338 42 39 79 6 359 54 33 64 65 32 73 61 29 6 108 86 12 19 70 51 87 76 134 192 232 197 25 355 6 87 71 300 23 333 355 8 20 65 86 83 79 88
29 138 188 359 351 1 4 352 49 25 39 34 32 45 100 60 32 59 25 13 36 352 40 79 86 70 35 59 71 80 47 40 60 12 87 304 40 354 350 19 103 112 116 102 55
84 75 2 79 300 5 2 352 102 132 25 18 104 42 77 103 168 117 152 31 3 15 53 20 131 114 35 52 79 74 40 53 36 51 82 57 282 141 112 97 78 87 89 57 25
31 40 104 311 1 56 319 296 334 82 47 64 139 92 57 132 209 270 277 102 30 138 101 68 119 84 226 248 0 2 6 53 65 59 0 279 265 153 100 87 86 79 72 43 16